| time (UTC) | temp C | wind direction | speed KPH | gust KPH | rain 1hr cm | rain 24hr cm | rain mn cm | humidity % | barometer mb |
| 20260504081503 | 16 | 311 | 0.0 | 4.8 | 0.00 | 0.03 | 0.00 | 77 | 1015.7 |
| 20260504050013 | 17 | 173 | 0.0 | 4.8 | 0.00 | 0.03 | 0.00 | 69 | 1017.8 |
| 20260504044508 | 17 | 274 | 0.0 | 8.0 | 0.00 | 0.03 | 0.03 | 67 | 1017.9 |
| 20260504043012 | 17 | 72 | 1.6 | 6.4 | 0.00 | 0.03 | 0.03 | 65 | 1018.0 |
| 20260504041512 | 17 | 198 | 0.0 | 4.8 | 0.00 | 0.03 | 0.03 | 66 | 1018.2 |
| 20260504040008 | 16 | 104 | 0.0 | 4.8 | 0.00 | 0.03 | 0.03 | 67 | 1018.3 |
| 20260504034510 | 15 | 105 | 0.0 | 0.0 | 0.00 | 0.03 | 0.03 | 70 | 1017.9 |
| 20260504033012 | 15 | 105 | 0.0 | 0.0 | 0.00 | 0.03 | 0.03 | 70 | 1017.9 |
| 20260504031514 | 16 | 105 | 0.0 | 0.0 | 0.00 | 0.03 | 0.03 | 69 | 1018.0 |
| 20260504030015 | 16 | 105 | 0.0 | 0.0 | 0.00 | 0.03 | 0.03 | 64 | 1018.0 |
| 20260504024510 | 17 | 105 | 0.0 | 0.0 | 0.00 | 0.03 | 0.03 | 64 | 1018.1 |
| 20260504023016 | 17 | 105 | 0.0 | 0.0 | 0.00 | 0.03 | 0.03 | 60 | 1017.7 |
| 20260504021517 | 17 | 105 | 0.0 | 0.0 | 0.00 | 0.03 | 0.03 | 62 | 1017.8 |
| 20260504020016 | 18 | 105 | 0.0 | 0.0 | 0.00 | 0.03 | 0.03 | 56 | 1017.7 |
| 20260504014515 | 18 | 105 | 0.0 | 0.0 | 0.00 | 0.03 | 0.03 | 55 | 1017.3 |
| 20260504013021 | 19 | 105 | 0.0 | 1.6 | 0.00 | 0.03 | 0.03 | 53 | 1017.3 |
| 20260504011520 | 20 | 103 | 0.0 | 3.2 | 0.00 | 0.03 | 0.03 | 52 | 1017.4 |
| 20260504010019 | 20 | 140 | 0.0 | 3.2 | 0.00 | 0.03 | 0.03 | 51 | 1017.3 |
| 20260504004521 | 21 | 104 | 0.0 | 3.2 | 0.00 | 0.03 | 0.03 | 50 | 1017.2 |
| 20260504003023 | 22 | 255 | 0.0 | 3.2 | 0.00 | 0.03 | 0.03 | 49 | 1017.3 |
| 20260504001517 | 22 | 138 | 1.6 | 12.9 | 0.00 | 0.03 | 0.03 | 47 | 1017.5 |
| 20260504000012 | 22 | 156 | 0.0 | 3.2 | 0.00 | 0.03 | 0.03 | 48 | 1017.6 |
| 20260503234504 | 22 | 132 | 0.0 | 6.4 | 0.00 | 0.03 | 0.03 | 51 | 1017.6 |
| 20260503233010 | 23 | 123 | 0.0 | 11.3 | 0.00 | 0.03 | 0.03 | 50 | 1017.8 |
| 20260503231515 | 22 | 182 | 0.0 | 3.2 | 0.00 | 0.03 | 0.03 | 50 | 1017.8 |
| 20260503230022 | 23 | 277 | 1.6 | 6.4 | 0.00 | 0.03 | 0.03 | 46 | 1017.6 |
| 20260503224503 | 25 | 59 | 1.6 | 16.1 | 0.00 | 0.03 | 0.03 | 41 | 1017.7 |
| 20260503223023 | 25 | 24 | 1.6 | 9.7 | 0.00 | 0.03 | 0.03 | 43 | 1018.2 |
| 20260503221514 | 25 | 223 | 1.6 | 9.7 | 0.00 | 0.03 | 0.03 | 44 | 1018.3 |
| 20260503220019 | 26 | 225 | 3.2 | 8.0 | 0.00 | 0.05 | 0.03 | 43 | 1018.5 |
| 20260503214524 | 24 | 280 | 1.6 | 9.7 | 0.00 | 0.05 | 0.03 | 44 | 1018.7 |
| 20260503213024 | 25 | 128 | 1.6 | 9.7 | 0.00 | 0.05 | 0.03 | 42 | 1019.2 |
| 20260503211509 | 25 | 113 | 1.6 | 9.7 | 0.00 | 0.05 | 0.03 | 41 | 1019.3 |
| 20260503210016 | 26 | 189 | 1.6 | 11.3 | 0.00 | 0.05 | 0.03 | 40 | 1019.7 |
| 20260503204522 | 25 | 180 | 1.6 | 16.1 | 0.00 | 0.08 | 0.03 | 41 | 1019.9 |
| 20260503203038 | 25 | 142 | 1.6 | 12.9 | 0.00 | 0.08 | 0.03 | 43 | 1020.1 |
| 20260503201509 | 26 | 281 | 3.2 | 12.9 | 0.00 | 0.08 | 0.03 | 36 | 1020.5 |
| 20260503200016 | 26 | 146 | 3.2 | 11.3 | 0.00 | 0.10 | 0.03 | 40 | 1020.7 |
| 20260503194521 | 26 | 292 | 0.0 | 8.0 | 0.00 | 0.10 | 0.03 | 40 | 1020.8 |
| 20260503193025 | 26 | 117 | 1.6 | 12.9 | 0.00 | 0.13 | 0.03 | 39 | 1021.2 |
| 20260503191523 | 26 | 254 | 3.2 | 16.1 | 0.00 | 0.13 | 0.03 | 43 | 1021.3 |
| 20260503190013 | 26 | 360 | 0.0 | 6.4 | 0.00 | 0.13 | 0.03 | 40 | 1021.5 |
| 20260503184526 | 26 | 136 | 1.6 | 11.3 | 0.00 | 0.15 | 0.03 | 42 | 1021.7 |
| 20260503183028 | 26 | 201 | 1.6 | 11.3 | 0.00 | 0.15 | 0.03 | 47 | 1021.9 |
| 20260503181528 | 25 | 75 | 3.2 | 12.9 | 0.00 | 0.15 | 0.03 | 43 | 1022.2 |
| 20260503180030 | 25 | 118 | 0.0 | 12.9 | 0.00 | 0.18 | 0.03 | 47 | 1022.5 |
| 20260503174517 | 25 | 121 | 3.2 | 11.3 | 0.00 | 0.20 | 0.03 | 49 | 1022.7 |
| 20260503173042 | 25 | 257 | 1.6 | 6.4 | 0.00 | 0.20 | 0.03 | 41 | 1022.7 |
| 20260503171534 | 24 | 272 | 1.6 | 6.4 | 0.00 | 0.23 | 0.03 | 46 | 1022.9 |